GW7205 Weather Reports


Display with metric or nautical units.
time (UTC)temp
F
wind
direction
speed
MPH
gust
MPH
rain 1hr
in
rain 24hr
in
rain mn
in
humidity
%
barometer
mb
20260507165343 71 106 1.0 1.0 0.00 0.00 0.00 85 1018.0
20260507164839 69 106 0.0 1.0 0.00 0.00 0.00 87 1018.0
20260507164336 69 106 0.0 1.0 0.00 0.00 0.00 88 1018.0
20260507163834 68 107 0.0 1.0 0.00 0.00 0.00 89 1017.9
20260507163331 67 107 0.0 1.0 0.00 0.00 0.00 90 1017.9
20260507162827 67 107 0.0 1.0 0.00 0.00 0.00 91 1017.8
20260507162323 66 107 0.0 0.0 0.00 0.00 0.00 91 1017.9
20260507161820 66 107 0.0 1.0 0.00 0.00 0.00 91 1017.6
20260507161317 66 107 0.0 0.0 0.00 0.00 0.00 91 1017.5
20260507160813 66 107 0.0 1.0 0.00 0.00 0.00 91 1017.4
20260507160309 66 107 1.0 2.0 0.00 0.00 0.00 91 1017.4
20260507155805 66 107 0.0 2.0 0.00 0.00 0.00 91 1017.5
20260507155301 66 107 0.0 1.0 0.00 0.00 0.00 91 1017.3
20260507154758 66 107 1.0 1.0 0.00 0.00 0.00 91 1017.2
20260507154256 66 106 0.0 1.0 0.00 0.00 0.00 91 1017.2
20260507153752 66 106 0.0 1.0 0.00 0.00 0.00 91 1017.4
20260507153248 66 106 0.0 0.0 0.00 0.00 0.00 91 1017.2
20260507152745 66 106 0.0 1.0 0.00 0.00 0.00 91 1017.1
20260507152242 66 106 1.0 1.0 0.00 0.00 0.00 91 1017.2
20260507151737 66 106 1.0 1.0 0.00 0.00 0.00 91 1017.2
20260507151234 66 97 1.0 2.0 0.00 0.00 0.00 91 1017.2
20260507150731 66 109 1.0 1.0 0.00 0.00 0.00 91 1017.0
20260507150228 66 109 0.0 1.0 0.00 0.00 0.00 91 1017.1
20260507145724 66 111 0.0 0.0 0.00 0.00 0.00 90 1017.0
20260507145220 66 109 1.0 2.0 0.00 0.00 0.00 90 1016.9
20260507144717 66 82 1.0 1.0 0.00 0.00 0.00 90 1016.7
20260507144215 67 82 0.0 1.0 0.00 0.00 0.00 90 1016.7
20260507143712 67 82 1.0 1.0 0.00 0.00 0.00 89 1016.6
20260507143209 67 82 0.0 1.0 0.00 0.00 0.00 89 1016.6
20260507142704 68 81 0.0 1.0 0.00 0.00 0.00 89 1016.5
20260507142201 68 81 1.0 1.0 0.00 0.00 0.00 89 1016.8
20260507141657 68 89 2.0 2.0 0.00 0.00 0.00 89 1016.5
20260507141154 68 74 1.0 2.0 0.00 0.00 0.00 89 1016.7
20260507140651 68 119 1.0 1.0 0.00 0.00 0.00 89 1016.8
20260507140149 68 119 0.0 0.0 0.00 0.00 0.00 89 1016.7
20260507135646 68 119 0.0 1.0 0.00 0.00 0.00 89 1017.0
20260507135143 68 119 0.0 1.0 0.00 0.00 0.00 89 1016.7
20260507134639 68 119 0.0 1.0 0.00 0.00 0.00 89 1016.8
20260507134135 68 119 0.0 0.0 0.00 0.00 0.00 89 1016.8
20260507133631 68 119 0.0 1.0 0.00 0.00 0.00 89 1016.7
20260507133129 68 119 0.0 1.0 0.00 0.00 0.00 89 1016.9
20260507132626 68 119 1.0 1.0 0.00 0.00 0.00 89 1016.6
20260507132122 68 119 0.0 1.0 0.00 0.00 0.00 89 1016.8
20260507131619 68 119 1.0 1.0 0.00 0.00 0.00 89 1016.8
20260507131116 68 119 0.0 1.0 0.00 0.00 0.00 89 1016.7
20260507130613 68 119 0.0 0.0 0.00 0.00 0.00 89 1016.8
20260507130111 68 119 1.0 1.0 0.00 0.00 0.00 89 1016.9
20260507125610 68 119 1.0 1.0 0.00 0.00 0.00 89 1016.9
20260507125106 68 119 0.0 1.0 0.00 0.00 0.00 88 1016.9
20260507124603 68 119 1.0 1.0 0.00 0.00 0.00 88 1017.1
20260507124101 69 119 1.0 1.0 0.00 0.00 0.00 88 1017.2
20260507123559 69 119 1.0 1.0 0.00 0.00 0.00 88 1017.0
20260507123055 69 119 1.0 1.0 0.00 0.00 0.00 88 1017.2
20260507122550 69 119 0.0 2.0 0.00 0.00 0.00 88 1017.3
20260507122046 69 120 1.0 1.0 0.00 0.00 0.00 88 1017.3
20260507121542 69 120 0.0 1.0 0.00 0.00 0.00 88 1017.4
20260507121038 69 120 1.0 1.0 0.00 0.00 0.00 88 1017.4
20260507120534 69 121 1.0 1.0 0.00 0.00 0.00 88 1017.5
20260507120032 69 121 0.0 1.0 0.00 0.00 0.00 88 1017.4
20260507115528 69 121 0.0 1.0 0.00 0.00 0.00 88 1017.3
20260507115024 69 121 0.0 1.0 0.00 0.00 0.00 88 1017.4
20260507114520 69 136 1.0 1.0 0.00 0.00 0.00 87 1017.5
20260507114017 69 136 1.0 1.0 0.00 0.00 0.00 87 1017.6
20260507113514 70 138 0.0 1.0 0.00 0.00 0.00 87 1017.5
20260507113012 70 138 0.0 0.0 0.00 0.00 0.00 87 1017.7
20260507112509 70 139 0.0 0.0 0.00 0.00 0.00 87 1017.6
20260507112006 70 139 0.0 0.0 0.00 0.00 0.00 86 1017.7
20260507111504 70 139 1.0 1.0 0.00 0.00 0.00 86 1017.8
20260507110959 70 139 0.0 0.0 0.00 0.00 0.00 86 1017.8
20260507110455 70 139 0.0 1.0 0.00 0.00 0.00 86 1017.9
20260507105952 70 135 2.0 2.0 0.00 0.00 0.00 86 1018.0
20260507105449 70 146 1.0 1.0 0.00 0.00 0.00 86 1017.9
20260507104946 70 147 1.0 2.0 0.00 0.00 0.00 86 1018.1
20260507104443 71 149 1.0 2.0 0.00 0.00 0.00 85 1018.0
20260507103938 70 148 2.0 3.0 0.00 0.00 0.00 86 1018.2
20260507103435 70 121 0.0 0.0 0.00 0.00 0.00 86 1018.1
20260507102931 70 122 0.0 1.0 0.00 0.00 0.00 86 1018.0
20260507102428 70 122 0.0 1.0 0.00 0.00 0.00 86 1018.1
20260507101925 70 121 1.0 2.0 0.00 0.00 0.00 86 1018.3
20260507101420 70 155 2.0 2.0 0.00 0.00 0.00 86 1018.1
20260507100916 70 155 0.0 1.0 0.00 0.00 0.00 86 1018.5
20260507100414 70 155 0.0 0.0 0.00 0.00 0.00 86 1018.3
20260507095912 71 155 0.0 2.0 0.00 0.00 0.00 85 1018.4
20260507095409 71 155 1.0 1.0 0.00 0.00 0.00 85 1018.4
20260507094906 71 155 2.0 2.0 0.00 0.00 0.00 85 1018.3
20260507094403 71 155 1.0 1.0 0.00 0.00 0.00 85 1018.4
20260507093859 71 155 0.0 1.0 0.00 0.00 0.00 85 1018.5
20260507093358 71 155 0.0 1.0 0.00 0.00 0.00 84 1018.5
20260507092856 71 155 1.0 1.0 0.00 0.00 0.00 85 1018.6
20260507092351 71 155 1.0 1.0 0.00 0.00 0.00 85 1018.9
20260507091848 71 155 0.0 1.0 0.00 0.00 0.00 85 1018.7
20260507091345 71 155 1.0 2.0 0.00 0.00 0.00 85 1018.6
20260507090840 71 155 0.0 0.0 0.00 0.00 0.00 85 1018.9
20260507090337 71 155 0.0 1.0 0.00 0.00 0.00 85 1018.6
20260507085834 71 155 1.0 2.0 0.00 0.00 0.00 85 1018.9
20260507085331 70 155 0.0 1.0 0.00 0.00 0.00 85 1018.8
20260507084828 71 154 2.0 2.0 0.00 0.00 0.00 85 1018.6
20260507084324 71 155 1.0 1.0 0.00 0.00 0.00 85 1018.6
20260507083822 71 155 1.0 1.0 0.00 0.00 0.00 85 1018.8
20260507083318 71 155 0.0 1.0 0.00 0.00 0.00 85 1018.8
20260507082814 71 155 0.0 2.0 0.00 0.00 0.00 85 1018.9
20260507082310 71 155 2.0 2.0 0.00 0.00 0.00 85 1018.6
20260507081808 71 154 2.0 2.0 0.00 0.00 0.00 86 1018.8
20260507081303 71 155 1.0 2.0 0.00 0.00 0.00 86 1018.8
20260507080800 71 154 1.0 1.0 0.00 0.00 0.00 86 1018.9
20260507080257 71 154 0.0 1.0 0.00 0.00 0.00 85 1018.8
20260507075752 71 154 1.0 2.0 0.00 0.00 0.00 85 1018.7
20260507075248 71 154 1.0 1.0 0.00 0.00 0.00 85 1018.7
20260507074744 71 154 0.0 0.0 0.00 0.00 0.00 85 1018.7
20260507074243 71 154 1.0 2.0 0.00 0.00 0.00 84 1018.6
20260507073739 71 155 1.0 2.0 0.00 0.00 0.00 84 1018.6
20260507073236 72 154 1.0 2.0 0.00 0.00 0.00 84 1018.6
20260507072734 72 150 2.0 3.0 0.00 0.00 0.00 84 1018.6
20260507072231 72 150 0.0 1.0 0.00 0.00 0.00 84 1018.5
20260507071728 72 150 0.0 0.0 0.00 0.00 0.00 83 1018.5
20260507071224 72 150 0.0 0.0 0.00 0.00 0.00 83 1018.6
20260507070721 72 150 1.0 1.0 0.00 0.00 0.00 83 1018.4
20260507070218 72 150 0.0 1.0 0.00 0.00 0.00 83 1018.4
20260507065715 73 149 0.0 1.0 0.00 0.00 0.00 82 1018.3
20260507065212 73 143 1.0 2.0 0.00 0.00 0.00 82 1018.2
20260507064709 73 143 1.0 1.0 0.00 0.00 0.00 82 1017.9
20260507064208 73 143 1.0 2.0 0.00 0.00 0.00 82 1018.0
20260507063705 73 143 0.0 1.0 0.00 0.00 0.00 82 1018.1
20260507063201 73 143 2.0 2.0 0.00 0.00 0.00 82 1017.9
20260507062658 73 148 2.0 3.0 0.00 0.00 0.00 82 1017.8
20260507062156 73 149 2.0 2.0 0.00 0.00 0.00 81 1017.9
20260507061654 73 151 2.0 3.0 0.00 0.00 0.00 81 1017.8
20260507061152 73 149 0.0 2.0 0.00 0.00 0.00 80 1017.6
20260507060649 74 148 0.0 3.0 0.00 0.00 0.00 80 1017.7
20260507060145 74 135 1.0 2.0 0.00 0.00 0.00 79 1017.5
20260507055641 74 152 1.0 2.0 0.00 0.00 0.00 78 1017.4
20260507055137 74 117 0.0 2.0 0.00 0.00 0.00 77 1017.6
20260507054633 74 117 1.0 2.0 0.00 0.00 0.00 76 1017.4
20260507054130 75 111 1.0 2.0 0.00 0.00 0.00 76 1017.4
20260507053628 75 50 1.0 2.0 0.00 0.00 0.00 75 1017.5
20260507053126 75 80 0.0 1.0 0.00 0.00 0.00 75 1017.2
20260507052624 75 76 1.0 1.0 0.00 0.00 0.00 75 1017.2
20260507052120 75 59 1.0 1.0 0.00 0.00 0.00 75 1017.1
20260507051618 75 8 3.0 3.0 0.00 0.00 0.00 75 1017.1
20260507051115 75 47 2.0 4.0 0.00 0.00 0.00 74 1016.9
20260507050611 75 322 2.0 3.0 0.00 0.00 0.00 74 1017.0
20260507050108 75 342 3.0 4.0 0.00 0.00 0.00 74 1016.8
20260507045605 75 7 1.0 2.0 0.00 0.00 0.00 74 1016.8
20260507045102 75 38 1.0 4.0 0.00 0.00 0.00 74 1017.0
20260507044558 75 350 2.0 6.0 0.00 0.00 0.00 74 1016.7
20260507044056 75 0 3.0 7.0 0.00 0.00 0.00 73 1016.7
20260507043551 75 36 2.0 6.0 0.00 0.00 0.00 73 1016.6
20260507043049 75 335 4.0 7.0 0.00 0.00 0.00 73 1016.6
20260507042544 76 343 6.0 7.0 0.00 0.00 0.00 73 1016.6
20260507042040 76 15 3.0 7.0 0.00 0.00 0.00 73 1016.5
20260507041537 76 347 5.0 9.0 0.00 0.00 0.00 73 1016.5
20260507041034 76 350 6.0 7.0 0.00 0.00 0.00 73 1016.4
20260507040531 76 305 3.0 4.0 0.00 0.00 0.00 73 1016.5
20260507040026 76 347 2.0 7.0 0.00 0.00 0.00 73 1016.4
20260507035523 76 21 3.0 4.0 0.00 0.00 0.00 73 1016.2
20260507035020 76 306 6.0 8.0 0.00 0.00 0.00 73 1016.1
20260507034517 76 333 3.0 9.0 0.00 0.00 0.00 73 1016.1
20260507034014 76 294 3.0 9.0 0.00 0.00 0.00 72 1015.9
20260507033512 76 319 5.0 8.0 0.00 0.00 0.00 72 1016.1
20260507033009 76 306 8.0 10.0 0.00 0.00 0.00 72 1016.0
20260507032506 76 328 4.0 8.0 0.00 0.00 0.00 73 1016.1
20260507032002 76 311 2.0 7.0 0.00 0.00 0.00 73 1015.8
20260507031458 76 359 5.0 7.0 0.00 0.00 0.00 73 1015.9
20260507030955 77 256 4.0 7.0 0.00 0.00 0.00 72 1015.7
20260507030452 76 80 2.0 7.0 0.00 0.00 0.00 73 1016.0
20260507025950 76 281 8.0 11.0 0.00 0.00 0.00 73 1016.0
20260507025447 77 343 7.0 8.0 0.00 0.00 0.00 72 1015.6
20260507024945 77 341 2.0 7.0 0.00 0.00 0.00 73 1015.6
20260507024442 77 289 7.0 9.0 0.00 0.00 0.00 72 1015.6
20260507023937 76 12 7.0 8.0 0.00 0.00 0.00 73 1015.7
20260507023434 76 346 4.0 8.0 0.00 0.00 0.00 73 1015.8
20260507022931 77 333 11.0 11.0 0.00 0.00 0.00 72 1015.5
20260507022429 76 301 4.0 6.0 0.00 0.00 0.00 73 1015.7
20260507021924 76 105 0.0 6.0 0.00 0.00 0.00 73 1015.7
20260507021419 77 325 6.0 10.0 0.00 0.00 0.00 72 1015.8
20260507020918 76 312 4.0 8.0 0.00 0.00 0.00 73 1015.7
20260507020414 76 325 5.0 7.0 0.00 0.00 0.00 73 1015.9
20260507015911 76 32 1.0 6.0 0.00 0.00 0.00 74 1016.0
20260507015409 77 328 6.0 10.0 0.00 0.00 0.00 73 1015.9
20260507014906 77 296 6.0 8.0 0.00 0.00 0.00 73 1015.9
20260507014402 77 226 2.0 7.0 0.00 0.00 0.00 73 1016.0
20260507013859 77 348 6.0 7.0 0.00 0.00 0.00 73 1016.0
20260507013356 77 331 7.0 9.0 0.00 0.00 0.00 72 1015.8
20260507012853 77 343 8.0 10.0 0.00 0.00 0.00 72 1015.8
20260507012349 77 325 8.0 8.0 0.00 0.00 0.00 72 1015.8
20260507011847 77 303 5.0 9.0 0.00 0.00 0.00 72 1015.9
20260507011344 77 256 4.0 10.0 0.00 0.00 0.00 72 1015.9
20260507010843 77 282 6.0 10.0 0.00 0.00 0.00 71 1015.8
20260507010339 77 351 5.0 9.0 0.00 0.00 0.00 71 1016.0
20260507005836 77 326 1.0 7.0 0.00 0.00 0.00 72 1016.0
20260507005333 77 303 4.0 10.0 0.00 0.00 0.00 73 1016.0
20260507004830 77 331 2.0 6.0 0.00 0.00 0.00 74 1016.0
20260507004327 77 277 7.0 9.0 0.00 0.00 0.00 73 1016.2
20260507003824 77 327 5.0 9.0 0.00 0.00 0.00 73 1016.0
20260507003320 77 253 4.0 9.0 0.00 0.00 0.00 74 1016.4
20260507002814 77 27 6.0 11.0 0.00 0.00 0.00 73 1016.3
20260507002311 77 278 7.0 10.0 0.00 0.00 0.00 73 1016.3
20260507001809 77 343 9.0 10.0 0.00 0.00 0.00 73 1016.4
20260507001306 78 304 4.0 10.0 0.00 0.00 0.00 72 1016.3
20260507000802 78 295 4.0 8.0 0.00 0.00 0.00 72 1016.6
20260507000259 78 343 5.0 8.0 0.00 0.00 0.00 72 1016.5
20260506235754 78 276 2.0 6.0 0.00 0.00 0.00 73 1016.7
20260506235250 78 313 6.0 9.0 0.00 0.00 0.00 72 1016.4
20260506234747 78 266 4.0 11.0 0.00 0.00 0.00 72 1016.6
20260506234244 78 292 5.0 8.0 0.00 0.00 0.00 72 1016.5
20260506233742 78 350 6.0 10.0 0.00 0.00 0.00 72 1016.7
20260506233238 79 323 6.0 9.0 0.00 0.00 0.00 71 1016.6
20260506232736 79 308 8.0 14.0 0.00 0.00 0.00 71 1016.6
20260506232236 79 306 8.0 13.0 0.00 0.00 0.00 72 1016.7
20260506231733 79 291 6.0 13.0 0.00 0.00 0.00 72 1016.6
20260506231231 79 335 5.0 11.0 0.00 0.00 0.00 72 1016.7
20260506230728 78 276 6.0 13.0 0.00 0.00 0.00 72 1016.6
20260506230225 78 4 11.0 13.0 0.00 0.00 0.00 72 1016.6
20260506225721 78 291 6.0 11.0 0.00 0.00 0.00 71 1016.7
20260506225219 78 316 11.0 14.0 0.00 0.00 0.00 72 1016.7
20260506224715 78 313 9.0 11.0 0.00 0.00 0.00 73 1016.8
20260506224212 78 326 9.0 13.0 0.00 0.00 0.00 73 1016.9
20260506223708 78 2 6.0 13.0 0.00 0.00 0.00 73 1016.8
20260506223204 79 307 6.0 11.0 0.00 0.00 0.00 73 1016.9
20260506222701 79 288 5.0 10.0 0.00 0.00 0.00 73 1017.1
20260506222156 80 307 4.0 14.0 0.00 0.00 0.00 72 1016.9
20260506221655 80 333 6.0 10.0 0.00 0.00 0.00 72 1016.8
20260506221153 80 311 3.0 11.0 0.00 0.00 0.00 72 1016.9
20260506220649 79 341 4.0 10.0 0.00 0.00 0.00 73 1016.9
20260506220144 80 295 7.0 13.0 0.00 0.00 0.00 72 1017.0
20260506215641 79 352 6.0 11.0 0.00 0.00 0.00 73 1016.9
20260506215136 79 350 7.0 13.0 0.00 0.00 0.00 72 1016.9
20260506214634 79 355 6.0 13.0 0.00 0.00 0.00 73 1017.1
20260506214131 79 301 9.0 11.0 0.00 0.00 0.00 72 1017.3
20260506213629 80 280 6.0 10.0 0.00 0.00 0.00 72 1017.1
20260506213126 79 79 4.0 8.0 0.00 0.00 0.00 72 1017.3
20260506212624 79 249 5.0 7.0 0.00 0.00 0.00 71 1017.1
20260506212118 79 293 2.0 10.0 0.00 0.00 0.00 72 1017.0
20260506211614 80 294 6.0 8.0 0.00 0.00 0.00 71 1017.4
20260506211111 81 260 5.0 14.0 0.00 0.00 0.00 70 1017.3
20260506210608 81 44 3.0 8.0 0.00 0.00 0.00 71 1017.2
20260506210104 80 284 3.0 8.0 0.00 0.00 0.00 72 1017.2
20260506205601 80 280 5.0 9.0 0.00 0.00 0.00 71 1017.2
20260506205056 79 277 4.0 13.0 0.00 0.00 0.00 73 1017.0
20260506204555 79 278 4.0 10.0 0.00 0.00 0.00 74 1017.1
20260506204051 79 318 6.0 9.0 0.00 0.00 0.00 75 1017.3
20260506203549 78 330 7.0 9.0 0.00 0.00 0.00 75 1017.1
20260506203046 78 309 4.0 10.0 0.00 0.00 0.00 75 1017.2
20260506202543 78 342 7.0 9.0 0.00 0.00 0.00 75 1017.3
20260506202040 78 54 4.0 10.0 0.00 0.00 0.00 76 1017.5
20260506201537 78 275 7.0 13.0 0.00 0.00 0.00 76 1017.3
20260506201033 78 297 5.0 8.0 0.00 0.00 0.00 74 1017.2
20260506200530 79 313 5.0 9.0 0.00 0.00 0.00 73 1017.1
20260506200027 78 335 5.0 8.0 0.00 0.00 0.00 74 1017.4
20260506195524 78 2 5.0 8.0 0.00 0.00 0.00 74 1017.2
20260506195020 78 2 4.0 7.0 0.00 0.00 0.00 74 1017.3
20260506194518 78 272 6.0 9.0 0.00 0.00 0.00 74 1017.5
20260506194014 78 306 4.0 9.0 0.00 0.00 0.00 74 1017.4
20260506193511 78 255 4.0 8.0 0.00 0.00 0.00 73 1017.1
20260506193008 78 270 3.0 7.0 0.00 0.00 0.00 75 1017.2
20260506192505 78 322 2.0 4.0 0.00 0.00 0.00 74 1017.3
20260506192001 78 294 3.0 7.0 0.00 0.00 0.00 74 1017.1
20260506191458 79 281 3.0 6.0 0.00 0.00 0.00 74 1016.9
20260506190954 78 12 2.0 3.0 0.00 0.00 0.00 76 1016.9
20260506190451 78 204 1.0 4.0 0.00 0.00 0.00 77 1017.0
20260506185948 78 54 1.0 3.0 0.00 0.00 0.00 77 1016.8
20260506185445 77 339 2.0 2.0 0.00 0.00 0.00 79 1017.0
20260506184942 77 268 2.0 3.0 0.00 0.00 0.00 80 1016.8
20260506184439 77 80 1.0 3.0 0.00 0.00 0.00 80 1016.8
20260506183936 77 327 1.0 2.0 0.00 0.00 0.00 82 1016.8
20260506183431 76 355 2.0 2.0 0.00 0.00 0.00 83 1016.8
20260506182929 76 48 2.0 2.0 0.00 0.00 0.00 83 1016.8
20260506182426 75 49 1.0 2.0 0.00 0.00 0.00 85 1016.8
20260506181923 75 50 1.0 1.0 0.00 0.00 0.00 86 1016.7
20260506181421 74 50 1.0 1.0 0.00 0.00 0.00 87 1016.5
20260506180918 74 49 2.0 2.0 0.00 0.00 0.00 87 1016.7
20260506180414 74 75 2.0 2.0 0.00 0.00 0.00 88 1016.7
20260506175911 73 106 0.0 1.0 0.00 0.00 0.00 88 1016.6
20260506175408 73 106 1.0 2.0 0.00 0.00 0.00 88 1016.8
20260506174905 73 107 0.0 1.0 0.00 0.00 0.00 89 1016.5
20260506174402 73 107 0.0 1.0 0.00 0.00 0.00 90 1016.7
20260506173859 72 107 1.0 2.0 0.00 0.00 0.00 90 1016.8
20260506173356 72 107 0.0 1.0 0.00 0.00 0.00 91 1016.5
20260506172853 72 108 0.0 1.0 0.00 0.00 0.00 91 1016.4
20260506172350 71 108 1.0 1.0 0.00 0.00 0.00 91 1016.3
20260506171847 71 108 0.0 0.0 0.00 0.00 0.00 91 1016.4
20260506171344 71 108 0.0 0.0 0.00 0.00 0.00 91 1016.3
20260506170842 71 108 1.0 1.0 0.00 0.00 0.00 91 1016.3
20260506170338 71 108 0.0 0.0 0.00 0.00 0.00 91 1016.3
20260506165837 71 108 1.0 1.0 0.00 0.00 0.00 91 1016.1